DAL22 KRNO-KSLC

Flight info

Callsign DAL22
Flight time N/A
Altitude 37000
Route ZEFFR9 BLKJK LLC SLOWN FLECC YUTES2
Aircraft B738/M-SDE2E3FGHIRWXY/LB1

Departure

Time 2026-05-05 03:45
Airport Reno Tahoe International Airport (KRNO)

Arrival

Time N/A
Airport Salt Lake City International Airport (KSLC)
Time Latitude Longitude Altitude Speed Heading
2026-05-05 03:28 39.51014 -119.77227 4409 ft 0 kts 270°
2026-05-05 03:38 39.51014 -119.77225 4409 ft 2 kts 271°
2026-05-05 03:39 39.51008 -119.77206 4410 ft 2 kts 337°
2026-05-05 03:39 39.51002 -119.77204 4410 ft 0 kts
2026-05-05 03:42 39.51011 -119.77203 4410 ft 5 kts
2026-05-05 03:42 39.51076 -119.77171 4411 ft 14 kts 16°
2026-05-05 03:43 39.51200 -119.77152 4409 ft 20 kts
2026-05-05 03:43 39.51319 -119.77154 4410 ft 17 kts
2026-05-05 03:43 39.51364 -119.77133 4412 ft 3 kts 38°
2026-05-05 03:43 39.51378 -119.77101 4411 ft 6 kts 80°
2026-05-05 03:44 39.51376 -119.77047 4410 ft 0 kts 95°
2026-05-05 03:44 39.51375 -119.77039 4410 ft 2 kts 95°
2026-05-05 03:44 39.51365 -119.76965 4409 ft 15 kts 113°
2026-05-05 03:44 39.51252 -119.76923 4413 ft 21 kts 179°
2026-05-05 03:45 39.50958 -119.76926 4412 ft 80 kts 181°
2026-05-05 03:45 39.50141 -119.76931 4407 ft 155 kts 180°
2026-05-05 03:45 39.48918 -119.76888 4912 ft 186 kts 182°
2026-05-05 03:45 39.47553 -119.76877 5789 ft 199 kts 185°
2026-05-05 03:46 39.46142 -119.76898 6568 ft 213 kts 184°
2026-05-05 03:46 39.44558 -119.76921 6800 ft 242 kts 182°
2026-05-05 03:46 39.42803 -119.76937 7205 ft 260 kts 182°
2026-05-05 03:46 39.40967 -119.76945 7705 ft 279 kts 181°
2026-05-05 03:47 39.38958 -119.76951 8399 ft 291 kts 180°
2026-05-05 03:47 39.36914 -119.76956 9335 ft 296 kts 179°
2026-05-05 03:47 39.34825 -119.76959 10196 ft 302 kts 177°
2026-05-05 03:47 39.32769 -119.76420 10995 ft 302 kts 150°
2026-05-05 03:48 39.31154 -119.74810 11921 ft 295 kts 126°
2026-05-05 03:48 39.30037 -119.72634 12902 ft 289 kts 114°
2026-05-05 03:48 39.29065 -119.70341 13790 ft 291 kts 112°
2026-05-05 03:48 39.28271 -119.67942 14550 ft 287 kts 96°
2026-05-05 03:49 39.28225 -119.65401 15310 ft 285 kts 79°
2026-05-05 03:49 39.28846 -119.62893 15487 ft 306 kts 60°
2026-05-05 03:49 39.30065 -119.60516 15671 ft 329 kts 54°
2026-05-05 03:49 39.31424 -119.58096 16034 ft 343 kts 54°
2026-05-05 03:50 39.32837 -119.55570 16686 ft 349 kts 55°
2026-05-05 03:50 39.34248 -119.53003 17429 ft 352 kts 55°
2026-05-05 03:50 39.35715 -119.50427 18050 ft 359 kts 51°
2026-05-05 03:50 39.37463 -119.48093 18642 ft 363 kts 45°
2026-05-05 03:51 39.39341 -119.45891 18902 ft 365 kts 43°
2026-05-05 03:51 39.41242 -119.43715 18926 ft 364 kts 43°
2026-05-05 03:51 39.43132 -119.41526 18940 ft 365 kts 44°
2026-05-05 03:51 39.44989 -119.39333 18932 ft 365 kts 44°